| time (UTC) | temp F | wind direction | speed knots | gust knots | rain 1hr in | rain 24hr in | rain mn in | humidity % | barometer mb |
| 20260510103258 | 76 | 315 | 0.0 | 0.9 | 0.00 | 1.70 | 0.00 | 64 | 1013.1 |
| 20260510102757 | 76 | 316 | 0.0 | 0.9 | 0.00 | 1.70 | 0.00 | 63 | 1013.1 |
| 20260510102257 | 76 | 316 | 0.0 | 0.9 | 0.00 | 1.70 | 0.00 | 63 | 1013.1 |
| 20260510101757 | 76 | 316 | 0.0 | 0.0 | 0.00 | 1.70 | 0.00 | 63 | 1013.1 |
| 20260510095502 | 76 | 316 | 0.0 | 0.9 | 0.00 | 1.70 | 0.00 | 63 | 1012.8 |
| 20260510084948 | 76 | 316 | 0.9 | 0.9 | 0.00 | 1.70 | 0.00 | 64 | 1012.8 |
| 20260510084455 | 76 | 316 | 0.9 | 0.9 | 0.00 | 1.70 | 0.00 | 64 | 1012.8 |
| 20260510082446 | 76 | 316 | 0.0 | 0.9 | 0.00 | 1.70 | 0.00 | 64 | 1012.7 |
| 20260510081729 | 76 | 316 | 0.0 | 0.9 | 0.00 | 1.70 | 0.00 | 64 | 1012.8 |
| 20260510080227 | 76 | 316 | 0.0 | 0.9 | 0.00 | 1.70 | 0.00 | 64 | 1012.6 |
| 20260510075727 | 76 | 316 | 0.0 | 0.9 | 0.00 | 1.70 | 0.00 | 64 | 1012.5 |
| 20260510075227 | 76 | 316 | 0.9 | 0.9 | 0.00 | 1.70 | 0.00 | 64 | 1012.5 |
| 20260510074727 | 76 | 316 | 0.9 | 0.9 | 0.00 | 1.70 | 0.00 | 64 | 1012.4 |
| 20260510074228 | 76 | 316 | 0.0 | 0.9 | 0.00 | 1.70 | 0.00 | 64 | 1012.4 |
| 20260510073727 | 76 | 316 | 0.0 | 0.9 | 0.00 | 1.70 | 0.00 | 64 | 1012.3 |
| 20260510073228 | 76 | 316 | 0.0 | 0.9 | 0.00 | 1.70 | 0.00 | 64 | 1012.3 |
| 20260510072728 | 76 | 316 | 0.0 | 0.9 | 0.00 | 1.70 | 0.00 | 64 | 1012.4 |
| 20260510072228 | 76 | 316 | 0.0 | 0.9 | 0.00 | 1.70 | 0.00 | 64 | 1012.4 |
| 20260510071728 | 76 | 316 | 0.0 | 0.9 | 0.00 | 1.70 | 0.00 | 64 | 1012.3 |
| 20260510071228 | 76 | 316 | 0.0 | 0.9 | 0.00 | 1.70 | 0.00 | 64 | 1012.3 |
| 20260510070952 | 76 | 316 | 0.0 | 0.9 | 0.00 | 1.70 | 0.00 | 64 | 1012.3 |
| 20260510070229 | 76 | 316 | 0.0 | 0.9 | 0.00 | 1.70 | 0.00 | 64 | 1012.3 |
| 20260510065716 | 76 | 316 | 0.0 | 0.9 | 0.00 | 1.70 | 0.00 | 64 | 1012.3 |
| 20260510065216 | 76 | 316 | 0.0 | 0.9 | 0.00 | 1.70 | 0.00 | 64 | 1012.3 |
| 20260510064716 | 76 | 316 | 0.0 | 0.9 | 0.00 | 1.70 | 0.00 | 64 | 1012.3 |
| 20260510064216 | 76 | 316 | 0.0 | 0.9 | 0.00 | 1.70 | 0.00 | 64 | 1012.3 |
| 20260510063716 | 76 | 316 | 0.0 | 0.9 | 0.00 | 1.70 | 0.00 | 64 | 1012.2 |
| 20260510063438 | 76 | 316 | 0.9 | 0.9 | 0.00 | 1.70 | 0.00 | 64 | 1012.2 |
| 20260510062941 | 76 | 316 | 0.0 | 0.9 | 0.00 | 1.70 | 0.00 | 64 | 1012.2 |
| 20260510062440 | 76 | 316 | 0.9 | 0.9 | 0.00 | 1.70 | 0.00 | 64 | 1012.3 |
| 20260510061716 | 76 | 316 | 0.9 | 0.9 | 0.00 | 1.70 | 0.00 | 64 | 1012.4 |
| 20260510061216 | 76 | 316 | 0.9 | 0.9 | 0.00 | 1.70 | 0.00 | 64 | 1012.5 |
| 20260510060717 | 76 | 316 | 0.9 | 0.9 | 0.00 | 1.70 | 0.00 | 64 | 1012.6 |
| 20260510060216 | 76 | 316 | 0.9 | 0.9 | 0.00 | 1.70 | 0.00 | 64 | 1012.7 |
| 20260510055717 | 76 | 316 | 0.9 | 0.9 | 0.00 | 1.70 | 0.00 | 63 | 1012.7 |
| 20260510055217 | 76 | 316 | 0.9 | 0.9 | 0.00 | 1.70 | 0.00 | 64 | 1012.7 |
| 20260510054937 | 76 | 316 | 0.9 | 0.9 | 0.00 | 1.70 | 0.00 | 64 | 1012.8 |
| 20260510054202 | 76 | 316 | 0.0 | 0.9 | 0.00 | 1.70 | 0.00 | 64 | 1012.8 |
| 20260510053702 | 76 | 316 | 0.0 | 0.9 | 0.00 | 1.70 | 0.00 | 64 | 1012.7 |
| 20260510053202 | 76 | 316 | 0.9 | 0.9 | 0.00 | 1.70 | 0.00 | 64 | 1012.7 |
| 20260510053151 | 76 | 316 | 0.9 | 0.9 | 0.00 | 1.70 | 0.00 | 63 | 1012.6 |
| 20260510052201 | 76 | 316 | 0.9 | 0.9 | 0.00 | 1.70 | 0.00 | 63 | 1012.4 |
| 20260510051702 | 76 | 316 | 0.9 | 0.9 | 0.00 | 1.70 | 0.00 | 63 | 1012.3 |
| 20260510051202 | 76 | 316 | 0.9 | 0.9 | 0.00 | 1.70 | 0.00 | 63 | 1012.3 |
| 20260510050701 | 76 | 316 | 0.9 | 1.7 | 0.00 | 1.70 | 0.00 | 63 | 1012.3 |
| 20260510050202 | 76 | 316 | 0.9 | 1.7 | 0.00 | 1.70 | 0.00 | 63 | 1012.2 |
| 20260510045702 | 76 | 316 | 0.9 | 1.7 | 0.00 | 1.70 | 1.70 | 63 | 1012.1 |
| 20260510045203 | 76 | 312 | 0.9 | 1.7 | 0.00 | 1.70 | 1.70 | 63 | 1011.8 |
| 20260510044930 | 76 | 323 | 0.9 | 1.7 | 0.00 | 1.70 | 1.70 | 63 | 1011.8 |
| 20260510044202 | 76 | 315 | 0.9 | 1.7 | 0.00 | 1.70 | 1.70 | 63 | 1011.7 |
| 20260510043647 | 76 | 331 | 0.9 | 1.7 | 0.00 | 1.70 | 1.70 | 63 | 1011.6 |
| 20260510043148 | 76 | 314 | 0.9 | 1.7 | 0.00 | 1.70 | 1.70 | 63 | 1011.6 |
| 20260510042913 | 76 | 299 | 0.9 | 1.7 | 0.00 | 1.70 | 1.70 | 63 | 1011.7 |
| 20260510042148 | 76 | 299 | 0.9 | 1.7 | 0.00 | 1.70 | 1.70 | 63 | 1011.8 |
| 20260510041904 | 76 | 324 | 0.9 | 1.7 | 0.00 | 1.70 | 1.70 | 63 | 1011.9 |
| 20260510041148 | 76 | 315 | 0.9 | 1.7 | 0.00 | 1.70 | 1.70 | 63 | 1012.0 |
| 20260510040647 | 76 | 316 | 0.9 | 1.7 | 0.00 | 1.70 | 1.70 | 63 | 1012.1 |
| 20260510040408 | 76 | 316 | 0.9 | 1.7 | 0.00 | 1.70 | 1.70 | 63 | 1012.3 |
| 20260510035648 | 76 | 315 | 0.9 | 1.7 | 0.00 | 1.70 | 1.70 | 63 | 1012.4 |
| 20260510035148 | 76 | 315 | 1.7 | 1.7 | 0.00 | 1.70 | 1.70 | 63 | 1012.5 |
| 20260510034648 | 76 | 305 | 1.7 | 1.7 | 0.00 | 1.70 | 1.70 | 63 | 1012.5 |
| 20260510034148 | 76 | 323 | 0.9 | 1.7 | 0.00 | 1.70 | 1.70 | 62 | 1012.5 |
| 20260510033910 | 76 | 317 | 0.9 | 2.6 | 0.00 | 1.70 | 1.70 | 62 | 1012.5 |
| 20260510033148 | 76 | 313 | 0.9 | 2.6 | 0.00 | 1.70 | 1.70 | 62 | 1012.4 |
| 20260510032853 | 76 | 316 | 0.9 | 0.9 | 0.00 | 1.70 | 1.70 | 62 | 1012.6 |
| 20260510032134 | 76 | 316 | 0.9 | 0.9 | 0.00 | 1.70 | 1.70 | 61 | 1012.8 |
| 20260510031633 | 76 | 316 | 0.9 | 1.7 | 0.00 | 1.70 | 1.70 | 61 | 1012.9 |
| 20260510031134 | 76 | 321 | 0.9 | 1.7 | 0.00 | 1.70 | 1.70 | 61 | 1013.1 |
| 20260510030634 | 76 | 306 | 0.9 | 1.7 | 0.00 | 1.70 | 1.70 | 61 | 1013.4 |
| 20260510030359 | 76 | 331 | 0.9 | 1.7 | 0.00 | 1.70 | 1.70 | 60 | 1013.5 |
| 20260510025634 | 77 | 316 | 0.9 | 0.9 | 0.00 | 1.70 | 1.70 | 60 | 1013.4 |
| 20260510025134 | 77 | 316 | 0.9 | 0.9 | 0.00 | 1.70 | 1.70 | 63 | 1013.4 |
| 20260510024634 | 77 | 315 | 0.9 | 1.7 | 0.00 | 1.70 | 1.70 | 64 | 1013.4 |
| 20260510024134 | 77 | 318 | 0.9 | 1.7 | 0.00 | 1.70 | 1.70 | 64 | 1013.3 |
| 20260510023635 | 77 | 325 | 0.9 | 0.9 | 0.00 | 1.70 | 1.70 | 64 | 1013.4 |
| 20260510023354 | 76 | 316 | 0.9 | 0.9 | 0.00 | 1.70 | 1.70 | 64 | 1013.3 |
| 20260510022635 | 77 | 315 | 0.9 | 1.7 | 0.00 | 1.70 | 1.70 | 64 | 1013.3 |
| 20260510022133 | 77 | 318 | 0.9 | 1.7 | 0.00 | 1.70 | 1.70 | 64 | 1013.2 |
| 20260510021633 | 77 | 313 | 0.9 | 1.7 | 0.00 | 1.70 | 1.70 | 64 | 1013.2 |
| 20260510021132 | 77 | 316 | 0.9 | 0.9 | 0.00 | 1.70 | 1.70 | 64 | 1013.2 |
| 20260510020633 | 77 | 315 | 0.9 | 0.9 | 0.00 | 1.70 | 1.70 | 64 | 1013.0 |
| 20260510020353 | 77 | 316 | 0.9 | 1.7 | 0.00 | 1.70 | 1.70 | 64 | 1013.0 |
| 20260510015633 | 77 | 143 | 0.9 | 1.7 | 0.00 | 1.70 | 1.70 | 64 | 1012.9 |
| 20260510015133 | 77 | 315 | 0.9 | 2.6 | 0.00 | 1.70 | 1.70 | 64 | 1013.0 |
| 20260510014633 | 77 | 315 | 0.9 | 2.6 | 0.00 | 1.70 | 1.70 | 64 | 1012.9 |
| 20260510014133 | 77 | 319 | 0.9 | 0.9 | 0.00 | 1.70 | 1.70 | 64 | 1012.8 |
| 20260510013633 | 77 | 316 | 0.9 | 0.9 | 0.00 | 1.70 | 1.70 | 64 | 1012.9 |
| 20260510013133 | 77 | 316 | 0.9 | 0.9 | 0.00 | 1.70 | 1.70 | 64 | 1012.8 |
| 20260510012633 | 77 | 316 | 0.9 | 0.9 | 0.00 | 1.70 | 1.70 | 64 | 1012.8 |
| 20260510012133 | 77 | 316 | 0.9 | 0.9 | 0.00 | 1.70 | 1.70 | 64 | 1012.8 |
| 20260510011621 | 77 | 316 | 0.9 | 0.9 | 0.00 | 1.70 | 1.70 | 64 | 1012.5 |
| 20260510011120 | 77 | 316 | 0.9 | 1.7 | 0.00 | 1.70 | 1.70 | 64 | 1012.3 |
| 20260510010827 | 77 | 304 | 1.7 | 2.6 | 0.00 | 1.70 | 1.70 | 64 | 1012.3 |
| 20260510010709 | 77 | 316 | 0.9 | 1.7 | 0.00 | 1.70 | 1.70 | 64 | 1012.4 |
| 20260510005621 | 77 | 316 | 1.7 | 2.6 | 0.00 | 1.70 | 1.70 | 64 | 1012.3 |
| 20260510005120 | 76 | 315 | 1.7 | 1.7 | 0.00 | 1.70 | 1.70 | 64 | 1012.2 |
| 20260510004621 | 76 | 313 | 1.7 | 2.6 | 0.00 | 1.70 | 1.70 | 64 | 1012.0 |
| 20260510004121 | 77 | 315 | 1.7 | 2.6 | 0.00 | 1.70 | 1.70 | 64 | 1012.1 |
| 20260510003621 | 76 | 311 | 1.7 | 2.6 | 0.00 | 1.70 | 1.70 | 64 | 1012.1 |
| 20260510003341 | 76 | 18 | 1.7 | 2.6 | 0.00 | 1.70 | 1.70 | 64 | 1012.0 |
| 20260510002621 | 77 | 314 | 1.7 | 1.7 | 0.00 | 1.70 | 1.70 | 64 | 1011.9 |
| 20260510002121 | 76 | 312 | 1.7 | 3.5 | 0.00 | 1.70 | 1.70 | 64 | 1011.7 |
| 20260510001621 | 76 | 316 | 1.7 | 3.5 | 0.00 | 1.70 | 1.70 | 64 | 1011.7 |
| 20260510001121 | 76 | 336 | 1.7 | 3.5 | 0.00 | 1.70 | 1.70 | 64 | 1011.7 |
| 20260510000623 | 77 | 316 | 0.9 | 2.6 | 0.00 | 1.70 | 1.70 | 64 | 1011.8 |
| 20260510000110 | 77 | 316 | 0.9 | 1.7 | 0.00 | 1.70 | 1.70 | 64 | 1011.9 |
| 20260509235609 | 77 | 316 | 0.9 | 1.7 | 0.00 | 1.70 | 1.70 | 64 | 1011.9 |
| 20260509235109 | 77 | 316 | 0.9 | 0.9 | 0.00 | 1.70 | 1.70 | 64 | 1011.8 |
| 20260509234836 | 77 | 315 | 0.9 | 1.7 | 0.00 | 1.70 | 1.70 | 64 | 1011.7 |
| 20260509234327 | 76 | 316 | 0.9 | 0.9 | 0.00 | 1.70 | 1.70 | 64 | 1011.8 |
| 20260509234209 | 77 | 316 | 0.9 | 1.7 | 0.00 | 1.70 | 1.70 | 64 | 1011.8 |
| 20260509233109 | 77 | 316 | 0.9 | 6.1 | 0.00 | 1.70 | 1.70 | 64 | 1011.8 |
| 20260509232604 | 77 | 316 | 7.8 | 31.3 | 0.00 | 1.70 | 1.70 | 64 | 1012.0 |
| 20260509232104 | 76 | 307 | 16.5 | 31.3 | 0.00 | 1.70 | 1.70 | 64 | 1011.8 |
| 20260509231604 | 77 | 99 | 21.7 | 31.3 | 0.00 | 1.70 | 1.70 | 64 | 1011.7 |
| 20260509231331 | 76 | 98 | 23.5 | 31.3 | 0.00 | 1.70 | 1.70 | 63 | 1011.7 |
| 20260509230604 | 76 | 98 | 22.6 | 30.4 | 0.01 | 1.71 | 1.70 | 64 | 1011.7 |
| 20260509230104 | 77 | 100 | 22.6 | 31.3 | 0.01 | 1.76 | 1.70 | 64 | 1011.8 |
| 20260509225604 | 76 | 96 | 25.2 | 31.3 | 0.01 | 1.80 | 1.70 | 63 | 1012.1 |
| 20260509225104 | 76 | 79 | 26.1 | 28.7 | 0.01 | 1.81 | 1.70 | 63 | 1012.2 |
| 20260509224824 | 76 | 79 | 26.1 | 29.5 | 0.01 | 1.85 | 1.70 | 63 | 1012.3 |
| 20260509224059 | 76 | 73 | 24.3 | 29.5 | 0.02 | 1.94 | 1.70 | 63 | 1012.3 |
| 20260509223556 | 76 | 50 | 22.6 | 27.8 | 0.02 | 1.96 | 1.70 | 63 | 1012.4 |
| 20260509223056 | 76 | 8 | 19.1 | 27.8 | 0.02 | 2.00 | 1.70 | 63 | 1012.2 |
| 20260509222555 | 76 | 353 | 9.6 | 26.9 | 0.04 | 2.02 | 1.70 | 63 | 1012.1 |
| 20260509222056 | 76 | 316 | 2.6 | 14.8 | 0.04 | 2.02 | 1.70 | 63 | 1011.8 |
| 20260509221556 | 77 | 316 | 2.6 | 2.6 | 0.05 | 2.02 | 1.70 | 63 | 1011.9 |
| 20260509221056 | 77 | 316 | 2.6 | 16.5 | 0.06 | 2.04 | 1.70 | 63 | 1011.8 |
| 20260509220552 | 76 | 317 | 2.6 | 16.5 | 0.06 | 2.04 | 1.70 | 63 | 1011.6 |
| 20260509220547 | 77 | 317 | 2.6 | 3.5 | 0.06 | 2.04 | 1.70 | 63 | 1011.5 |
| 20260509214554 | 76 | 317 | 1.7 | 2.6 | 0.06 | 2.04 | 1.69 | 63 | 1011.8 |
| 20260509214318 | 77 | 316 | 2.6 | 3.5 | 0.06 | 2.03 | 1.69 | 63 | 1011.7 |
| 20260509213542 | 76 | 317 | 1.7 | 3.5 | 0.06 | 2.03 | 1.69 | 63 | 1011.9 |
| 20260509213042 | 76 | 316 | 1.7 | 3.5 | 0.05 | 2.02 | 1.68 | 63 | 1011.8 |
| 20260509212759 | 76 | 316 | 2.6 | 3.5 | 0.04 | 2.01 | 1.67 | 63 | 1012.0 |
| 20260509212042 | 76 | 316 | 2.6 | 3.5 | 0.03 | 2.00 | 1.66 | 63 | 1012.2 |
| 20260509211542 | 76 | 316 | 2.6 | 3.5 | 0.02 | 1.99 | 1.65 | 63 | 1012.3 |
| 20260509211043 | 76 | 317 | 2.6 | 3.5 | 0.01 | 1.98 | 1.64 | 63 | 1012.4 |
| 20260509210543 | 76 | 317 | 2.6 | 3.5 | 0.01 | 1.98 | 1.63 | 63 | 1012.1 |
| 20260509210042 | 76 | 316 | 1.7 | 3.5 | 0.01 | 1.98 | 1.63 | 63 | 1011.9 |
| 20260509205543 | 76 | 317 | 2.6 | 2.6 | 0.01 | 1.97 | 1.63 | 63 | 1011.9 |
| 20260509205039 | 76 | 317 | 2.6 | 2.6 | 0.01 | 1.97 | 1.63 | 63 | 1011.7 |
| 20260509204539 | 76 | 316 | 1.7 | 2.6 | 0.01 | 1.97 | 1.63 | 63 | 1011.7 |
| 20260509204039 | 76 | 316 | 2.6 | 3.5 | 0.02 | 1.97 | 1.63 | 63 | 1011.6 |
| 20260509203539 | 76 | 317 | 2.6 | 3.5 | 0.03 | 1.97 | 1.63 | 63 | 1011.4 |
| 20260509203037 | 77 | 316 | 2.6 | 3.5 | 0.03 | 2.00 | 1.63 | 63 | 1011.4 |
| 20260509201801 | 76 | 316 | 2.6 | 3.5 | 0.05 | 2.15 | 1.63 | 63 | 1011.3 |
| 20260509201037 | 76 | 317 | 2.6 | 3.5 | 0.05 | 2.15 | 1.62 | 63 | 1011.5 |
| 20260509200538 | 76 | 79 | 1.7 | 3.5 | 0.06 | 2.16 | 1.62 | 63 | 1011.7 |
| 20260509200038 | 76 | 318 | 1.7 | 2.6 | 0.06 | 2.17 | 1.62 | 63 | 1011.8 |
| 20260509195528 | 76 | 63 | 1.7 | 3.5 | 0.07 | 2.24 | 1.62 | 63 | 1012.0 |
| 20260509195250 | 76 | 318 | 2.6 | 4.3 | 0.08 | 2.27 | 1.62 | 63 | 1012.0 |
| 20260509194527 | 76 | 314 | 2.6 | 4.3 | 0.10 | 2.37 | 1.62 | 63 | 1012.1 |
| 20260509194028 | 76 | 316 | 1.7 | 3.5 | 0.12 | 2.47 | 1.61 | 63 | 1012.4 |
| 20260509193527 | 76 | 322 | 1.7 | 2.6 | 0.15 | 2.64 | 1.60 | 63 | 1012.7 |
| 20260509193028 | 76 | 330 | 1.7 | 3.5 | 0.20 | 2.93 | 1.59 | 63 | 1012.8 |
| 20260509192526 | 76 | 328 | 1.7 | 4.3 | 0.21 | 3.17 | 1.59 | 63 | 1013.0 |
| 20260509192017 | 76 | 328 | 2.6 | 4.3 | 0.22 | 3.36 | 1.58 | 63 | 1013.1 |
| 20260509191517 | 76 | 303 | 1.7 | 5.2 | 0.23 | 3.36 | 1.58 | 63 | 1013.0 |
| 20260509191017 | 76 | 318 | 2.6 | 5.2 | 0.24 | 3.35 | 1.57 | 63 | 1012.9 |
| 20260509190510 | 76 | 301 | 3.5 | 5.2 | 0.24 | 3.35 | 1.57 | 63 | 1013.0 |
| 20260509190010 | 76 | 309 | 2.6 | 5.2 | 0.25 | 3.34 | 1.56 | 63 | 1012.9 |
| 20260509185738 | 76 | 319 | 2.6 | 5.2 | 0.26 | 3.33 | 1.56 | 63 | 1012.8 |
| 20260509185010 | 76 | 328 | 3.5 | 5.2 | 0.26 | 3.32 | 1.54 | 63 | 1013.0 |
| 20260509184736 | 76 | 325 | 2.6 | 4.3 | 0.24 | 3.30 | 1.52 | 63 | 1012.9 |
| 20260509184011 | 76 | 329 | 2.6 | 8.7 | 0.21 | 3.27 | 1.49 | 63 | 1012.8 |
| 20260509183510 | 76 | 88 | 3.5 | 9.6 | 0.17 | 3.22 | 1.44 | 63 | 1013.1 |
| 20260509183239 | 76 | 208 | 5.2 | 9.6 | 0.13 | 3.18 | 1.40 | 63 | 1013.6 |
| 20260509182737 | 76 | 160 | 4.3 | 9.6 | 0.11 | 3.16 | 1.38 | 63 | 1013.4 |
| 20260509182011 | 76 | 174 | 3.5 | 9.6 | 0.10 | 3.14 | 1.36 | 63 | 1013.0 |
| 20260509181511 | 76 | 267 | 3.5 | 7.0 | 0.09 | 3.13 | 1.35 | 63 | 1012.7 |
| 20260509181238 | 76 | 51 | 2.6 | 3.5 | 0.08 | 3.11 | 1.33 | 63 | 1013.0 |
| 20260509180511 | 76 | 51 | 2.6 | 4.3 | 0.08 | 3.10 | 1.32 | 63 | 1012.9 |
| 20260509180236 | 76 | 11 | 2.6 | 8.7 | 0.08 | 3.09 | 1.31 | 63 | 1012.3 |
| 20260509175505 | 76 | 46 | 2.6 | 8.7 | 0.06 | 3.07 | 1.30 | 63 | 1012.8 |
| 20260509175005 | 76 | 317 | 3.5 | 8.7 | 0.04 | 3.06 | 1.28 | 63 | 1013.0 |
| 20260509174505 | 76 | 121 | 3.5 | 8.7 | 0.04 | 3.06 | 1.28 | 63 | 1013.1 |
| 20260509174005 | 76 | 318 | 3.5 | 8.7 | 0.05 | 3.06 | 1.28 | 63 | 1013.0 |
| 20260509173506 | 76 | 159 | 3.5 | 7.0 | 0.06 | 3.06 | 1.28 | 63 | 1012.8 |
| 20260509173225 | 76 | 335 | 2.6 | 5.2 | 0.06 | 3.05 | 1.27 | 63 | 1012.7 |
| 20260509172456 | 76 | 51 | 2.6 | 3.5 | 0.06 | 3.05 | 1.27 | 63 | 1013.0 |
| 20260509171957 | 76 | 332 | 2.6 | 3.5 | 0.06 | 3.04 | 1.26 | 63 | 1013.2 |
| 20260509171457 | 76 | 318 | 2.6 | 3.5 | 0.07 | 3.04 | 1.26 | 63 | 1013.2 |
| 20260509170957 | 76 | 307 | 2.6 | 3.5 | 0.08 | 3.04 | 1.26 | 63 | 1012.1 |
| 20260509170457 | 76 | 309 | 2.6 | 3.5 | 0.11 | 3.02 | 1.24 | 63 | 1012.3 |
| 20260509165957 | 76 | 307 | 2.6 | 3.5 | 0.11 | 3.02 | 1.24 | 63 | 1012.8 |
| 20260509165458 | 76 | 315 | 2.6 | 3.5 | 0.20 | 3.02 | 1.24 | 63 | 1012.9 |
| 20260509164957 | 76 | 330 | 2.6 | 3.5 | 0.26 | 3.02 | 1.24 | 63 | 1013.0 |
| 20260509164457 | 76 | 313 | 2.6 | 3.5 | 0.28 | 3.02 | 1.24 | 63 | 1013.1 |
| 20260509163957 | 76 | 320 | 3.5 | 4.3 | 0.30 | 3.01 | 1.23 | 63 | 1013.1 |
| 20260509163448 | 76 | 60 | 3.5 | 4.3 | 0.29 | 3.00 | 1.22 | 63 | 1013.4 |
| 20260509162948 | 76 | 312 | 2.6 | 4.3 | 0.29 | 2.99 | 1.21 | 63 | 1013.2 |
| 20260509162443 | 76 | 324 | 2.6 | 4.3 | 0.29 | 2.99 | 1.21 | 62 | 1013.2 |
| 20260509161940 | 76 | 132 | 2.6 | 4.3 | 0.29 | 2.99 | 1.21 | 62 | 1013.2 |
| 20260509161703 | 76 | 314 | 2.6 | 3.5 | 0.28 | 2.96 | 1.18 | 62 | 1012.7 |
| 20260509160941 | 76 | 312 | 2.6 | 3.5 | 0.35 | 2.95 | 1.17 | 62 | 1012.9 |
| 20260509160922 | 76 | 321 | 2.6 | 3.5 | 0.40 | 2.91 | 1.13 | 63 | 1013.3 |
| 20260509155943 | 76 | 316 | 1.7 | 3.5 | 0.40 | 2.90 | 1.12 | 62 | 1013.4 |
| 20260509155444 | 76 | 318 | 1.7 | 3.5 | 0.30 | 2.78 | 1.00 | 62 | 1012.9 |
| 20260509154944 | 76 | 318 | 1.7 | 3.5 | 0.31 | 2.75 | 0.97 | 62 | 1013.3 |
| 20260509154443 | 76 | 133 | 2.6 | 3.5 | 0.42 | 2.73 | 0.95 | 62 | 1013.4 |
| 20260509153944 | 76 | 328 | 2.6 | 3.5 | 0.43 | 2.71 | 0.93 | 62 | 1013.3 |
| 20260509153444 | 76 | 328 | 2.6 | 3.5 | 0.46 | 2.70 | 0.93 | 62 | 1013.3 |
| 20260509152935 | 76 | 135 | 2.6 | 3.5 | 0.46 | 2.70 | 0.93 | 62 | 1013.2 |
| 20260509152708 | 76 | 154 | 2.6 | 4.3 | 0.30 | 2.51 | 0.73 | 62 | 1013.1 |
| 20260509152704 | 76 | 135 | 2.6 | 3.5 | 0.45 | 2.67 | 0.89 | 62 | 1013.1 |
| 20260509152641 | 76 | 134 | 2.6 | 3.5 | 0.46 | 2.70 | 0.92 | 62 | 1013.0 |
| 20260509152600 | 76 | 130 | 2.6 | 3.5 | 0.45 | 2.69 | 0.91 | 62 | 1012.9 |
| 20260509152339 | 76 | 142 | 2.6 | 3.5 | 0.39 | 2.60 | 0.82 | 62 | 1013.1 |
| 20260509150649 | 76 | 154 | 2.6 | 4.3 | 0.30 | 2.51 | 0.73 | 62 | 1013.1 |
| 20260509145932 | 76 | 130 | 2.6 | 4.3 | 0.30 | 2.50 | 0.72 | 62 | 1013.0 |
| 20260509145432 | 76 | 318 | 2.6 | 4.3 | 0.30 | 2.49 | 0.71 | 62 | 1012.9 |
| 20260509144931 | 76 | 142 | 1.7 | 3.5 | 0.25 | 2.44 | 0.67 | 62 | 1012.9 |
| 20260509144431 | 76 | 24 | 1.7 | 2.6 | 0.12 | 2.31 | 0.54 | 62 | 1013.5 |
| 20260509143932 | 76 | 105 | 2.6 | 3.5 | 0.09 | 2.28 | 0.50 | 62 | 1013.0 |
| 20260509143431 | 76 | 319 | 2.6 | 3.5 | 0.05 | 2.24 | 0.46 | 62 | 1012.9 |
| 20260509142932 | 76 | 321 | 2.6 | 3.5 | 0.05 | 2.24 | 0.46 | 62 | 1013.1 |
| 20260509142432 | 76 | 320 | 2.6 | 3.5 | 0.07 | 2.24 | 0.46 | 62 | 1013.0 |
| 20260509141932 | 76 | 298 | 2.6 | 3.5 | 0.10 | 2.24 | 0.46 | 62 | 1012.9 |
| 20260509141432 | 76 | 322 | 2.6 | 2.6 | 0.10 | 2.22 | 0.44 | 62 | 1012.9 |
| 20260509140932 | 75 | 310 | 2.6 | 3.5 | 0.11 | 2.21 | 0.43 | 62 | 1013.0 |
| 20260509140432 | 75 | 309 | 2.6 | 3.5 | 0.13 | 2.20 | 0.43 | 62 | 1013.2 |
| 20260509135930 | 75 | 307 | 2.6 | 2.6 | 0.23 | 2.20 | 0.42 | 61 | 1012.7 |
| 20260509135429 | 76 | 325 | 2.6 | 3.5 | 0.38 | 2.19 | 0.41 | 61 | 1012.6 |
| 20260509134915 | 76 | 337 | 2.6 | 3.5 | 0.40 | 2.19 | 0.41 | 61 | 1012.3 |
| 20260509134857 | 75 | 334 | 2.6 | 3.5 | 0.41 | 2.19 | 0.41 | 61 | 1012.5 |
| 20260509134137 | 75 | 322 | 2.6 | 3.5 | 0.41 | 2.19 | 0.41 | 61 | 1012.7 |
| 20260509133414 | 75 | 303 | 2.6 | 3.5 | 0.41 | 2.19 | 0.41 | 61 | 1012.8 |
| 20260509132914 | 76 | 318 | 2.6 | 3.5 | 0.41 | 2.19 | 0.41 | 60 | 1012.9 |
| 20260509132415 | 75 | 292 | 2.6 | 3.5 | 0.39 | 2.17 | 0.39 | 60 | 1013.1 |
| 20260509131915 | 76 | 323 | 2.6 | 3.5 | 0.35 | 2.13 | 0.35 | 60 | 1013.3 |
| 20260509131639 | 75 | 316 | 2.6 | 3.5 | 0.34 | 2.12 | 0.34 | 59 | 1013.5 |
| 20260509130915 | 76 | 319 | 2.6 | 3.5 | 0.32 | 2.10 | 0.32 | 60 | 1013.6 |
| 20260509130415 | 76 | 324 | 2.6 | 2.6 | 0.29 | 2.07 | 0.29 | 61 | 1013.8 |
| 20260509130359 | 76 | 315 | 2.6 | 3.5 | 0.19 | 1.97 | 0.19 | 62 | 1013.9 |
| 20260509125416 | 76 | 302 | 2.6 | 3.5 | 0.04 | 1.81 | 0.04 | 61 | 1013.4 |
| 20260509124900 | 76 | 327 | 2.6 | 3.5 | 0.01 | 1.79 | 0.01 | 61 | 1013.1 |
| 20260509124401 | 76 | 346 | 2.6 | 3.5 | 0.00 | 1.78 | 0.00 | 61 | 1013.0 |
| 20260509123851 | 76 | 318 | 2.6 | 3.5 | 0.00 | 1.78 | 0.00 | 60 | 1012.3 |
| 20260509123613 | 76 | 330 | 2.6 | 3.5 | 0.00 | 1.78 | 0.00 | 60 | 1011.9 |
| 20260509123114 | 76 | 312 | 2.6 | 3.5 | 0.00 | 1.78 | 0.00 | 59 | 1011.2 |
| 20260509122351 | 76 | 308 | 2.6 | 3.5 | 0.00 | 1.78 | 0.00 | 59 | 1011.1 |
| 20260509121851 | 76 | 338 | 2.6 | 3.5 | 0.00 | 1.78 | 0.00 | 59 | 1011.1 |
| 20260509121351 | 76 | 317 | 2.6 | 3.5 | 0.00 | 1.78 | 0.00 | 60 | 1010.8 |
| 20260509120852 | 77 | 325 | 2.6 | 2.6 | 0.00 | 1.78 | 0.00 | 62 | 1010.7 |
| 20260509120352 | 77 | 330 | 1.7 | 3.5 | 0.00 | 1.78 | 0.00 | 63 | 1010.6 |
| 20260509115852 | 77 | 317 | 1.7 | 3.5 | 0.00 | 1.78 | 0.00 | 63 | 1010.6 |
| 20260509115347 | 77 | 316 | 2.6 | 3.5 | 0.00 | 1.78 | 0.00 | 63 | 1010.4 |
| 20260509113845 | 77 | 316 | 1.7 | 2.6 | 0.00 | 1.78 | 0.00 | 63 | 1010.5 |
| 20260509113345 | 76 | 316 | 1.7 | 2.6 | 0.00 | 1.78 | 0.00 | 63 | 1010.5 |
| 20260509112846 | 77 | 316 | 1.7 | 2.6 | 0.00 | 1.78 | 0.00 | 63 | 1010.4 |
| 20260509112603 | 77 | 316 | 1.7 | 2.6 | 0.00 | 1.78 | 0.00 | 63 | 1010.3 |
| 20260509111845 | 76 | 316 | 1.7 | 2.6 | 0.00 | 1.78 | 0.00 | 63 | 1010.4 |
| 20260509111345 | 76 | 317 | 1.7 | 2.6 | 0.00 | 1.78 | 0.00 | 63 | 1010.1 |
| 20260509110845 | 76 | 316 | 2.6 | 2.6 | 0.00 | 1.78 | 0.00 | 63 | 1010.1 |
| 20260509110338 | 77 | 316 | 2.6 | 2.6 | 0.00 | 1.78 | 0.00 | 63 | 1010.0 |
| 20260509105838 | 76 | 316 | 2.6 | 2.6 | 0.00 | 1.78 | 0.00 | 63 | 1010.1 |
| 20260509105601 | 76 | 317 | 2.6 | 2.6 | 0.00 | 1.78 | 0.00 | 63 | 1010.1 |
| 20260509105056 | 77 | 316 | 2.6 | 3.5 | 0.00 | 1.78 | 0.00 | 63 | 1010.2 |
| 20260509104338 | 76 | 316 | 2.6 | 3.5 | 0.00 | 1.78 | 0.00 | 63 | 1010.2 |